OPS 4682 DEB, 38422

Orbit data source: Space-Track

OPS 4682 DEB, 38422 is space debris in LEO originally from a launch on Sat, 03 Apr 1965 UTC launched from the Air Force Western Test Range (AFWTR). Debris objects in space refer to the collection of defunct objects orbiting the Earth. Examples of debris include non-operational satellites, rocket bodies, and fragments generated from explosions, collisions, or faulty payload assembly.

Loading next visibility...
Identifier
38422, 1965-027EB
Orbit
LEO
Country
Flag of USUS
Related business
Manufacturer
Unknown
Mission
Spacecraft
Bus & Motor
Unknown
Mass
Unknown
Launch date (UTC)
1965-04-03 (61 years ago)
Launch vehicle
Unknown
Launch site
Air Force Western Test Range (AFWTR)
Object type
Payload
Rocket body
Debris
Shape & HBR
Unknown shape, 0.1 m
Radar Cross Section
Small (<0.1 m²)

Expand to show TLE details & history
Last TLE update: 1 day ago

TLE from 1 day ago
0 OPS 4682 DEB
1 38422U 65027EB  26103.24960080 -.00000091  00000-0 -33734-3 0  9995
2 38422  90.2701  22.7534 0031691 232.8881 126.9343 12.97622767654704
Epoch: 2026-04-13T05:59Z
TLE epoch observation values (Epoch: 2026-04-13T05:59:25.509Z)
Latitude
0.00001°
Longitude
91.4542°
Altitude
1,288.914 km
Speed
7.205 km/s
True Right ascension
01h 31m 00s
True Declination
0° 00' 00"
Sunlit
Object was in daylight at epoch
Visualization orbit readout
Latitude
Unknown
Longitude
Unknown
Altitude
Unknown
Speed
Unknown
Apparent Right ascension
Unknown
Apparent Declination
Unknown
Sunlit
N/A
Visualization observer readout
Local Sidereal Time
18:52:16
Azimuth
Unknown
Elevation
Unknown
Doppler factor
Unknown
Orbital elements
Apogee altitude
1,292.779 km
Perigee altitude
1,244.312 km
Semi-major axis
7,646.683 km
Eccentricity
0.00317
Inclination
90.2701°
RAAN
22.7534°
Arg. of periapsis
232.8881°
True anomaly
127.22389°
Mean anomaly
126.9343°
Eccentric anomaly
127.07916°
Mean motion
3.24589 °/min
Orbital period
110.91 mins
BSTAR
-0.00033734
Loading maneuver chart data...
Computing Atmospheric mass density...
Loading historical data...
Loading historical data...
Loading historical data...
Loading historical data...
Loading historical data...
Loading historical data...
Loading historical data...

Documentation

Showing up to 5 results
|